This demonstration page uses our WeatherBlox Daily Observations layout. Learn more.

Left ArrowRight Arrow

40.92501, -98.34201

Hourly Observations for June 18, 2020

Temp ( °F °C ) Dew Point ( °F °C ) Humidity (%) Winds ( mph kmh ) Pressure ( in mb ) Visibility ( mi km ) Precip ( " mm )
12:53 am 00:53 Clear 79 26.1 60 15.6 52 52 SSE 22 35 29.77 1008 10 16 0.00 0.00
1:53 am 01:53 Clear 78 25.6 61 16.1 56 56 S 22 35 29.77 1008 10 16 0.00 0.00
2:53 am 02:53 Clear 77 25 62 16.7 60 60 S 23 37 29.78 1008 10 16 0.00 0.00
3:53 am 03:53 Clear 76 24.4 62 16.7 62 62 S 17 28 29.77 1008 10 16 0.00 0.00
4:53 am 04:53 Clear 75 23.9 62 16.7 64 64 SSE 18 30 29.76 1008 10 16 0.00 0.00
5:53 am 05:53 Clear 74 23.3 61 16.1 64 64 SSE 15 24 29.77 1008 10 16 0.00 0.00
6:53 am 06:53 Sunny 74 23.3 61 16.1 64 64 S 14 22 29.79 1009 10 16 0.00 0.00
7:53 am 07:53 Partly Cloudy with Light Rain 76 24.4 62 16.7 62 62 SSW 6 9 29.83 1010 10 16 0.00 0.00
8:53 am 08:53 Sunny 78 25.6 61 16.1 56 56 S 9 15 29.84 1011 10 16 0.00 0.00
9:53 am 09:53 Sunny 81 27.2 60 15.6 49 49 S 13 20 29.84 1010 10 16 0.00 0.00
10:53 am 10:53 Sunny 83 28.3 60 15.6 46 46 SSW 8 13 29.85 1011 10 16 0.00 0.00
11:33 am 11:33 Mostly Cloudy 80 26.7 63 17.2 56 56 NNW 20 31 29.82 1010 10 16 0.00 0.00
11:49 am 11:49 Cloudy 79 26 63 17 58 58 N 21 33 29.82 1010 10 16 0.00 0.00
11:53 am 11:53 Cloudy 78 25.6 63 17.2 60 60 N 21 33 29.88 1012 10 16 0.00 0.00
12:53 pm 12:53 Cloudy 76 24.4 63 17.2 64 64 N 21 33 29.89 1012 10 16 0.00 0.00
1:53 pm 13:53 Cloudy 73 22.8 62 16.7 69 69 N 16 26 29.91 1013 10 16 0.00 0.00
2:53 pm 14:53 Mostly Cloudy 75 23.9 58 14.4 55 55 N 21 33 29.92 1013 10 16 0.00 0.00
3:53 pm 15:53 Cloudy 72 22.2 57 13.9 59 59 N 20 31 29.92 1013 10 16 0.00 0.00
4:53 pm 16:53 Mostly Cloudy 74 23.3 57 13.9 56 56 N 18 30 29.92 1013 10 16 0.00 0.00
5:53 pm 17:53 Mostly Cloudy 74 23.3 56 13.3 54 54 N 20 31 29.92 1013 10 16 0.00 0.00
6:53 pm 18:53 Mostly Cloudy 73 22.8 53 11.7 50 50 NNE 17 28 29.93 1014 10 16 0.00 0.00
7:53 pm 19:53 Mostly Cloudy 72 22.2 52 11.1 50 50 NNE 21 33 29.95 1014 10 16 0.00 0.00
8:53 pm 20:53 Cloudy 71 21.7 54 12.2 55 55 NNE 15 24 29.96 1015 10 16 0.00 0.00
9:53 pm 21:53 Cloudy 69 20.6 54 12.2 59 59 NE 14 22 30.01 1016 10 16 0.00 0.00
10:53 pm 22:53 Clear 66 18.9 55 12.8 68 68 NNE 9 15 30.01 1016 10 16 0.00 0.00
11:53 pm 23:53 Clear 65 18.3 55 12.8 70 70 NNE 10 17 30.01 1016 10 16 0.00 0.00

Powered by AerisWeather